Location: Pitton
(51.0667°N, 1.7000°W)
Time: 08:54:58
(UTC+00:00)

KORONAS-FOTON - Pass Details

Date: 17 September 2019
Orbit: 505 x 533 km, 82.4° (Epoch: 19 October)

Event Time Altitude Azimuth Distance (km) Brightness Sun altitude
Rises 20:24:22 0° 351° (N) 2,634 8.0 -19.8°
Reaches altitude 10° 20:26:32 10° 355° (N) 1,739 6.9 -20.1°
Enters shadow 20:30:17 65° 74° (ENE) 565 3.7 -20.6°
